Home > Weather > Bad Hersfeld > Past weeks

Flag for Germany Past Weather in Bad Hersfeld, Hesse, Germany — Yesterday and Last 2 Weeks

Now
52 °F

Light rain. Overcast.


Feels Like: 50 °F
Forecast: 47 / 67 °F
Wind: 6 mph from Northwest

Location: Fritzlar Airport

Current Time: May 24, 2016 at 8:19:55 AM

Latest Report: May 24, 2016 at 7:20 AM


Visibility: N/A

Pressure: 29.92 "Hg

Humidity: 88%

Dew Point: 48 °F

Location of Bad HersfeldLocation

Past Weather in Bad Hersfeld — Graph

°F

Bad Hersfeld Temperature Yesterday

Maximum temperature yesterday: 63 °F (at 4:20 PM)
Minimum temperature yesterday: 55 °F (at 4:20 AM)
Average temperature yesterday: 59 °F

High & Low Weather Summary for the Past Weeks

 TemperatureHumidityPressure
High79 °F (May 22, 2:20 PM)100% (May 11, 6:20 AM)30.09 "Hg (May 11, 6:20 AM)
Low36 °F (May 16, 4:20 AM)31% (May 13, 6:20 PM)29.47 "Hg (May 12, 7:20 PM)
Average56 °F68%29.88 "Hg
* Reported May 9 6:20 AM — May 24 6:20 AM, Bad Hersfeld, Weather by CustomWeather, © 2016

Note: Actual official high and low records may vary slightly from our data, if they occured in-between our weather recording intervals... More about our weather records

Advertising

Bad Hersfeld Weather History for the Previous 24 Hours

Scroll right to see more
 ConditionsComfort  
Time TempWeatherWind HumidityBarometerVisibility
6:20 AM
Tue, May 24
52 °FLight rain. Overcast.9 mph88%29.89 "HgN/A
5:20 AM54 °FPassing clouds.12 mph82%29.89 "HgN/A
4:20 AM54 °FPassing clouds.9 mph88%29.89 "HgN/A
3:20 AM54 °FLight rain. Passing clouds.10 mph94%29.89 "HgN/A
2:45 AM55 °FLight rain. Passing clouds.13 mph88%29.89 "HgN/A
2:20 AM55 °FPassing clouds.7 mph88%29.89 "HgN/A
1:20 AM55 °FPartly cloudy.5 mph82%29.89 "HgN/A
12:20 AM55 °FPartly cloudy.5 mph82%29.89 "HgN/A
11:20 PM
Mon, May 23
55 °FPassing clouds.1 mph82%29.89 "HgN/A
10:20 PM57 °FPassing clouds.2 mph77%29.89 "HgN/A
9:20 PM57 °FPartly sunny.3 mph72%29.86 "HgN/A
8:20 PM59 °FPartly sunny.6 mph68%29.86 "HgN/A
7:20 PM59 °FPartly sunny.8 mph68%29.86 "HgN/A
6:20 PM61 °FPartly sunny.5 mph63%29.86 "HgN/A
5:20 PM61 °FBroken clouds.7 mph68%29.86 "HgN/A
4:20 PM63 °FBroken clouds.9 mph64%29.86 "HgN/A
3:20 PM61 °FBroken clouds.12 mph68%29.86 "HgN/A
2:20 PM59 °FPartly sunny.9 mph72%29.86 "HgN/A
1:20 PM61 °FBroken clouds.12 mph68%29.83 "HgN/A
12:20 PM61 °FBroken clouds.10 mph68%29.83 "HgN/A
11:20 AM59 °FBroken clouds.9 mph77%29.83 "HgN/A
10:20 AM59 °FBroken clouds.9 mph77%29.83 "HgN/A
9:20 AM55 °FMostly cloudy.12 mph88%29.83 "HgN/A
8:20 AM57 °FMostly cloudy.10 mph88%29.83 "HgN/A
Weather by CustomWeather, © 2016

See weather overviewHow to use our weather pages